Tabellarische Ansicht des 2.9.2020


Die einzelnen Werte des Tages

Uhrzeit Temperatur Luftdruck Luftfeuchte Wind Hi-Wind Taupunkt THW Index Wind Chill Heat Index Solar- strahlung Regen

00:00

10.4 C

1015.3 hpa

84 %

0.0 km/h aus 117

0.0 km/h aus ---

7.8 C

10.4 C

10.4 C

10.4 C

0 W/m

0.00 mm

00:05

10.3 C

1015.3 hpa

84 %

0.0 km/h aus 115

0.0 km/h aus ---

7.7 C

10.3 C

10.3 C

10.3 C

0 W/m

0.00 mm

00:10

10.2 C

1015.3 hpa

84 %

0.0 km/h aus 116

0.0 km/h aus ---

7.6 C

10.2 C

10.2 C

10.2 C

0 W/m

0.00 mm

00:15

10.1 C

1015.3 hpa

84 %

0.0 km/h aus 114

0.0 km/h aus ---

7.5 C

10.1 C

10.1 C

10.1 C

0 W/m

0.00 mm

00:20

9.9 C

1015.3 hpa

84 %

0.0 km/h aus 115

0.0 km/h aus ---

7.4 C

10.0 C

9.9 C

10.0 C

0 W/m

0.00 mm

00:25

9.9 C

1015.3 hpa

84 %

0.0 km/h aus 117

0.0 km/h aus ---

7.3 C

9.9 C

9.9 C

9.9 C

0 W/m

0.00 mm

00:30

9.8 C

1015.1 hpa

84 %

0.0 km/h aus 116

0.0 km/h aus ---

7.2 C

9.8 C

9.8 C

9.8 C

0 W/m

0.00 mm

00:35

9.7 C

1015.1 hpa

84 %

0.0 km/h aus 116

0.0 km/h aus ---

7.1 C

9.8 C

9.7 C

9.8 C

0 W/m

0.00 mm

00:40

9.7 C

1015.1 hpa

84 %

0.0 km/h aus 117

0.0 km/h aus ---

7.1 C

9.7 C

9.7 C

9.7 C

0 W/m

0.00 mm

00:45

9.7 C

1015.1 hpa

84 %

0.0 km/h aus 113

0.0 km/h aus ---

7.1 C

9.7 C

9.7 C

9.7 C

0 W/m

0.00 mm

00:50

9.6 C

1015.1 hpa

85 %

0.0 km/h aus 117

0.0 km/h aus ---

7.2 C

9.7 C

9.6 C

9.7 C

0 W/m

0.00 mm

00:55

9.6 C

1015.1 hpa

85 %

0.0 km/h aus 117

0.0 km/h aus ---

7.2 C

9.7 C

9.6 C

9.7 C

0 W/m

0.00 mm

01:00

9.7 C

1015.2 hpa

86 %

0.0 km/h aus 117

0.0 km/h aus ---

7.4 C

9.7 C

9.7 C

9.7 C

0 W/m

0.00 mm

01:05

9.7 C

1015.2 hpa

86 %

0.0 km/h aus 116

0.0 km/h aus ---

7.4 C

9.7 C

9.7 C

9.7 C

0 W/m

0.00 mm

01:10

9.7 C

1015.2 hpa

86 %

0.0 km/h aus 113

0.0 km/h aus ---

7.4 C

9.7 C

9.7 C

9.7 C

0 W/m

0.00 mm

01:15

9.6 C

1015.2 hpa

86 %

0.0 km/h aus 114

0.0 km/h aus ---

7.4 C

9.7 C

9.6 C

9.7 C

0 W/m

0.00 mm

01:20

9.6 C

1015.2 hpa

86 %

0.0 km/h aus 116

0.0 km/h aus ---

7.3 C

9.6 C

9.6 C

9.6 C

0 W/m

0.00 mm

01:25

9.6 C

1015.2 hpa

86 %

0.0 km/h aus 117

0.0 km/h aus ---

7.3 C

9.6 C

9.6 C

9.6 C

0 W/m

0.00 mm

01:30

9.6 C

1015.2 hpa

87 %

0.0 km/h aus 116

0.0 km/h aus ---

7.5 C

9.7 C

9.6 C

9.7 C

0 W/m

0.00 mm

01:35

9.6 C

1015.2 hpa

87 %

0.0 km/h aus 116

0.0 km/h aus ---

7.5 C

9.7 C

9.6 C

9.7 C

0 W/m

0.00 mm

01:40

9.5 C

1015.2 hpa

87 %

0.0 km/h aus 114

0.0 km/h aus ---

7.4 C

9.6 C

9.5 C

9.6 C

0 W/m

0.00 mm

01:45

9.5 C

1015.0 hpa

87 %

0.0 km/h aus 117

0.0 km/h aus ---

7.4 C

9.6 C

9.5 C

9.6 C

0 W/m

0.00 mm

01:50

9.5 C

1015.0 hpa

87 %

0.0 km/h aus 117

0.0 km/h aus ---

7.4 C

9.6 C

9.5 C

9.6 C

0 W/m

0.00 mm

01:55

9.5 C

1015.0 hpa

87 %

0.0 km/h aus 116

0.0 km/h aus ---

7.4 C

9.6 C

9.5 C

9.6 C

0 W/m

0.00 mm

02:00

9.5 C

1014.9 hpa

87 %

0.0 km/h aus 117

0.0 km/h aus ---

7.4 C

9.6 C

9.5 C

9.6 C

0 W/m

0.00 mm

02:05

9.5 C

1014.9 hpa

87 %

0.0 km/h aus 113

0.0 km/h aus ---

7.4 C

9.6 C

9.5 C

9.6 C

0 W/m

0.00 mm

02:10

9.4 C

1014.9 hpa

87 %

0.0 km/h aus 114

0.0 km/h aus ---

7.4 C

9.6 C

9.4 C

9.6 C

0 W/m

0.00 mm

02:15

9.4 C

1014.9 hpa

87 %

0.0 km/h aus 117

0.0 km/h aus ---

7.3 C

9.5 C

9.4 C

9.5 C

0 W/m

0.00 mm

02:20

9.3 C

1014.9 hpa

87 %

0.0 km/h aus 117

0.0 km/h aus ---

7.3 C

9.4 C

9.3 C

9.4 C

0 W/m

0.00 mm

02:25

9.3 C

1014.9 hpa

87 %

0.0 km/h aus 116

0.0 km/h aus ---

7.3 C

9.4 C

9.3 C

9.4 C

0 W/m

0.00 mm

02:30

9.3 C

1014.9 hpa

87 %

0.0 km/h aus 117

0.0 km/h aus ---

7.2 C

9.4 C

9.3 C

9.4 C

0 W/m

0.00 mm

02:35

9.3 C

1014.9 hpa

88 %

0.0 km/h aus 114

0.0 km/h aus ---

7.4 C

9.4 C

9.3 C

9.4 C

0 W/m

0.00 mm

02:40

9.2 C

1014.9 hpa

87 %

0.0 km/h aus 113

0.0 km/h aus ---

7.1 C

9.2 C

9.2 C

9.2 C

0 W/m

0.00 mm

02:45

9.1 C

1014.9 hpa

87 %

0.0 km/h aus 117

0.0 km/h aus ---

7.1 C

9.2 C

9.1 C

9.2 C

0 W/m

0.00 mm

02:50

9.0 C

1014.9 hpa

87 %

0.0 km/h aus 117

0.0 km/h aus ---

7.0 C

9.1 C

9.0 C

9.1 C

0 W/m

0.00 mm

02:55

8.9 C

1014.9 hpa

87 %

0.0 km/h aus 116

0.0 km/h aus ---

6.9 C

9.0 C

8.9 C

9.0 C

0 W/m

0.00 mm

03:00

8.8 C

1014.9 hpa

87 %

0.0 km/h aus 117

0.0 km/h aus ---

6.8 C

8.9 C

8.8 C

8.9 C

0 W/m

0.00 mm

03:05

8.8 C

1014.9 hpa

87 %

0.0 km/h aus 114

0.0 km/h aus ---

6.7 C

8.8 C

8.8 C

8.8 C

0 W/m

0.00 mm

03:10

8.7 C

1014.9 hpa

87 %

0.0 km/h aus 114

0.0 km/h aus ---

6.6 C

8.7 C

8.7 C

8.7 C

0 W/m

0.00 mm

03:15

8.6 C

1014.9 hpa

87 %

0.0 km/h aus 117

0.0 km/h aus ---

6.6 C

8.7 C

8.6 C

8.7 C

0 W/m

0.00 mm

03:20

8.5 C

1014.9 hpa

87 %

0.0 km/h aus 116

0.0 km/h aus ---

6.5 C

8.6 C

8.5 C

8.6 C

0 W/m

0.00 mm

03:25

8.4 C

1014.9 hpa

87 %

0.0 km/h aus 116

0.0 km/h aus ---

6.4 C

8.5 C

8.4 C

8.5 C

0 W/m

0.00 mm

03:30

8.3 C

1014.9 hpa

87 %

0.0 km/h aus 116

0.0 km/h aus ---

6.3 C

8.4 C

8.3 C

8.4 C

0 W/m

0.00 mm

03:35

8.3 C

1014.9 hpa

87 %

0.0 km/h aus 114

0.0 km/h aus ---

6.2 C

8.3 C

8.3 C

8.3 C

0 W/m

0.00 mm

03:40

8.2 C

1014.9 hpa

87 %

0.0 km/h aus 116

0.0 km/h aus ---

6.2 C

8.3 C

8.2 C

8.3 C

0 W/m

0.00 mm

03:45

8.2 C

1014.9 hpa

87 %

0.0 km/h aus 116

0.0 km/h aus ---

6.1 C

8.2 C

8.2 C

8.2 C

0 W/m

0.00 mm

03:50

8.1 C

1014.9 hpa

87 %

0.0 km/h aus 117

0.0 km/h aus ---

6.0 C

8.1 C

8.1 C

8.1 C

0 W/m

0.00 mm

03:55

8.1 C

1014.9 hpa

87 %

0.0 km/h aus 118

0.0 km/h aus ---

6.0 C

8.1 C

8.1 C

8.1 C

0 W/m

0.00 mm

04:00

8.1 C

1014.9 hpa

88 %

0.0 km/h aus 115

0.0 km/h aus ---

6.2 C

8.1 C

8.1 C

8.1 C

0 W/m

0.00 mm

04:05

8.0 C

1014.9 hpa

87 %

0.0 km/h aus 114

0.0 km/h aus ---

6.0 C

8.1 C

8.0 C

8.1 C

0 W/m

0.00 mm

04:10

8.0 C

1014.9 hpa

88 %

0.0 km/h aus 116

0.0 km/h aus ---

6.1 C

8.1 C

8.0 C

8.1 C

0 W/m

0.00 mm

04:15

7.9 C

1014.9 hpa

88 %

0.0 km/h aus 117

0.0 km/h aus ---

6.1 C

8.0 C

7.9 C

8.0 C

0 W/m

0.00 mm

04:20

7.9 C

1014.9 hpa

88 %

0.0 km/h aus 116

0.0 km/h aus ---

6.1 C

8.0 C

7.9 C

8.0 C

0 W/m

0.00 mm

04:25

7.9 C

1014.9 hpa

88 %

0.0 km/h aus 116

0.0 km/h aus ---

6.0 C

7.9 C

7.9 C

7.9 C

0 W/m

0.00 mm

04:30

7.8 C

1014.9 hpa

88 %

0.0 km/h aus 116

0.0 km/h aus ---

6.0 C

7.9 C

7.8 C

7.9 C

0 W/m

0.00 mm

04:35

7.8 C

1014.9 hpa

88 %

0.0 km/h aus 114

0.0 km/h aus ---

5.9 C

7.8 C

7.8 C

7.8 C

0 W/m

0.00 mm

04:40

7.7 C

1014.9 hpa

88 %

0.0 km/h aus 115

0.0 km/h aus ---

5.9 C

7.8 C

7.7 C

7.8 C

0 W/m

0.00 mm

04:45

7.7 C

1014.9 hpa

88 %

0.0 km/h aus 116

0.0 km/h aus ---

5.8 C

7.7 C

7.7 C

7.7 C

0 W/m

0.00 mm

04:50

7.6 C

1014.9 hpa

88 %

0.0 km/h aus 117

0.0 km/h aus ---

5.7 C

7.6 C

7.6 C

7.6 C

0 W/m

0.00 mm

04:55

7.6 C

1014.9 hpa

88 %

0.0 km/h aus 117

0.0 km/h aus ---

5.7 C

7.6 C

7.6 C

7.6 C

0 W/m

0.00 mm

05:00

7.6 C

1014.8 hpa

88 %

0.0 km/h aus 117

0.0 km/h aus ---

5.7 C

7.6 C

7.6 C

7.6 C

0 W/m

0.00 mm

05:05

7.6 C

1014.8 hpa

88 %

0.0 km/h aus 114

0.0 km/h aus ---

5.7 C

7.6 C

7.6 C

7.6 C

0 W/m

0.00 mm

05:10

7.5 C

1014.8 hpa

88 %

0.0 km/h aus 115

0.0 km/h aus ---

5.6 C

7.5 C

7.5 C

7.5 C

0 W/m

0.00 mm

05:15

7.5 C

1014.8 hpa

88 %

0.0 km/h aus 116

0.0 km/h aus ---

5.6 C

7.5 C

7.5 C

7.5 C

0 W/m

0.00 mm

05:20

7.4 C

1014.8 hpa

88 %

0.0 km/h aus 116

0.0 km/h aus ---

5.6 C

7.4 C

7.4 C

7.4 C

0 W/m

0.00 mm

05:25

7.4 C

1014.8 hpa

88 %

0.0 km/h aus 117

0.0 km/h aus ---

5.5 C

7.4 C

7.4 C

7.4 C

0 W/m

0.00 mm

05:30

7.4 C

1014.8 hpa

88 %

0.0 km/h aus 117

0.0 km/h aus ---

5.5 C

7.4 C

7.4 C

7.4 C

0 W/m

0.00 mm

05:35

7.3 C

1014.8 hpa

88 %

0.0 km/h aus 114

0.0 km/h aus ---

5.5 C

7.3 C

7.3 C

7.3 C

0 W/m

0.00 mm

05:40

7.3 C

1014.8 hpa

88 %

0.0 km/h aus 114

0.0 km/h aus ---

5.4 C

7.3 C

7.3 C

7.3 C

0 W/m

0.00 mm

05:45

7.3 C

1014.9 hpa

88 %

0.0 km/h aus 117

0.0 km/h aus ---

5.4 C

7.3 C

7.3 C

7.3 C

0 W/m

0.00 mm

05:50

7.2 C

1014.9 hpa

88 %

0.0 km/h aus 116

0.0 km/h aus ---

5.4 C

7.2 C

7.2 C

7.2 C

0 W/m

0.00 mm

05:55

7.2 C

1014.9 hpa

88 %

0.0 km/h aus 117

0.0 km/h aus ---

5.3 C

7.2 C

7.2 C

7.2 C

0 W/m

0.00 mm

06:00

7.1 C

1014.8 hpa

88 %

0.0 km/h aus 116

0.0 km/h aus ---

5.2 C

7.1 C

7.1 C

7.1 C

0 W/m

0.00 mm

06:05

7.0 C

1014.8 hpa

88 %

0.0 km/h aus 114

0.0 km/h aus ---

5.1 C

7.0 C

7.0 C

7.0 C

0 W/m

0.00 mm

06:10

6.9 C

1014.8 hpa

88 %

0.0 km/h aus 115

0.0 km/h aus ---

5.1 C

6.9 C

6.9 C

6.9 C

0 W/m

0.00 mm

06:15

6.9 C

1014.9 hpa

88 %

0.0 km/h aus 117

0.0 km/h aus ---

5.0 C

6.9 C

6.9 C

6.9 C

0 W/m

0.00 mm

06:20

6.8 C

1014.9 hpa

88 %

0.0 km/h aus 116

0.0 km/h aus ---

5.0 C

6.8 C

6.8 C

6.8 C

0 W/m

0.00 mm

06:25

6.8 C

1014.9 hpa

88 %

0.0 km/h aus 116

0.0 km/h aus ---

4.9 C

6.8 C

6.8 C

6.8 C

0 W/m

0.00 mm

06:30

6.7 C

1014.9 hpa

88 %

0.0 km/h aus 117

0.0 km/h aus ---

4.9 C

6.7 C

6.7 C

6.7 C

0 W/m

0.00 mm

06:35

6.7 C

1014.9 hpa

88 %

0.0 km/h aus 116

0.0 km/h aus ---

4.8 C

6.7 C

6.7 C

6.7 C

5 W/m

0.00 mm

06:40

6.7 C

1014.9 hpa

88 %

0.0 km/h aus 113

0.0 km/h aus ---

4.8 C

6.7 C

6.7 C

6.7 C

10 W/m

0.00 mm

06:45

6.6 C

1014.9 hpa

88 %

0.0 km/h aus 116

0.0 km/h aus ---

4.8 C

6.6 C

6.6 C

6.6 C

12 W/m

0.00 mm

06:50

6.6 C

1014.9 hpa

89 %

0.0 km/h aus 117

0.0 km/h aus ---

4.9 C

6.6 C

6.6 C

6.6 C

17 W/m

0.00 mm

06:55

6.6 C

1014.9 hpa

89 %

0.0 km/h aus 117

0.0 km/h aus ---

4.9 C

6.6 C

6.6 C

6.6 C

21 W/m

0.00 mm

07:00

6.5 C

1015.1 hpa

89 %

0.0 km/h aus 117

0.0 km/h aus ---

4.8 C

6.5 C

6.5 C

6.5 C

26 W/m

0.00 mm

07:05

6.5 C

1015.1 hpa

89 %

0.0 km/h aus 116

0.0 km/h aus ---

4.8 C

6.5 C

6.5 C

6.5 C

30 W/m

0.00 mm

07:10

6.5 C

1015.1 hpa

89 %

0.0 km/h aus 115

0.0 km/h aus ---

4.8 C

6.5 C

6.5 C

6.5 C

34 W/m

0.00 mm

07:15

6.6 C

1015.1 hpa

89 %

0.0 km/h aus 114

0.0 km/h aus ---

4.9 C

6.6 C

6.6 C

6.6 C

40 W/m

0.00 mm

07:20

6.7 C

1015.1 hpa

90 %

0.0 km/h aus 117

0.0 km/h aus ---

5.1 C

6.7 C

6.7 C

6.7 C

44 W/m

0.00 mm

07:25

6.8 C

1015.1 hpa

90 %

0.0 km/h aus 117

0.0 km/h aus ---

5.3 C

6.8 C

6.8 C

6.8 C

48 W/m

0.00 mm

07:30

6.8 C

1015.1 hpa

90 %

0.0 km/h aus 116

0.0 km/h aus ---

5.3 C

6.9 C

6.8 C

6.9 C

51 W/m

0.00 mm

07:35

7.1 C

1015.1 hpa

91 %

0.0 km/h aus 117

3.2 km/h aus SE

5.7 C

7.1 C

7.1 C

7.1 C

69 W/m

0.00 mm

07:40

7.3 C

1015.1 hpa

91 %

0.0 km/h aus 114

0.0 km/h aus ---

5.9 C

7.3 C

7.3 C

7.3 C

64 W/m

0.00 mm

07:45

7.6 C

1015.0 hpa

92 %

0.0 km/h aus 116

0.0 km/h aus ---

6.4 C

7.7 C

7.6 C

7.7 C

51 W/m

0.00 mm

07:50

7.9 C

1015.0 hpa

92 %

1.6 km/h aus 116

3.2 km/h aus SE

6.7 C

8.1 C

7.9 C

8.1 C

62 W/m

0.00 mm

07:55

8.2 C

1015.0 hpa

92 %

3.2 km/h aus 116

4.8 km/h aus SE

7.0 C

8.3 C

8.2 C

8.3 C

57 W/m

0.00 mm

08:00

8.4 C

1014.9 hpa

92 %

3.2 km/h aus 116

4.8 km/h aus SE

7.2 C

8.6 C

8.4 C

8.6 C

67 W/m

0.00 mm

08:05

8.6 C

1014.9 hpa

92 %

1.6 km/h aus 115

4.8 km/h aus SE

7.3 C

8.7 C

8.6 C

8.7 C

79 W/m

0.00 mm

08:10

8.7 C

1014.9 hpa

92 %

0.0 km/h aus 114

0.0 km/h aus ---

7.4 C

8.8 C

8.7 C

8.8 C

100 W/m

0.00 mm

08:15

8.8 C

1015.1 hpa

93 %

0.0 km/h aus 116

0.0 km/h aus ---

7.7 C

8.9 C

8.8 C

8.9 C

140 W/m

0.00 mm

08:20

9.0 C

1015.1 hpa

93 %

0.0 km/h aus 117

0.0 km/h aus ---

7.9 C

9.2 C

9.0 C

9.2 C

197 W/m

0.00 mm

08:25

9.5 C

1015.1 hpa

94 %

0.0 km/h aus 117

0.0 km/h aus ---

8.6 C

9.8 C

9.5 C

9.8 C

247 W/m

0.00 mm

08:30

9.9 C

1015.3 hpa

93 %

0.0 km/h aus 117

1.6 km/h aus SE

8.8 C

10.1 C

9.9 C

10.1 C

292 W/m

0.00 mm

08:35

10.2 C

1015.3 hpa

94 %

1.6 km/h aus 114

4.8 km/h aus SE

9.2 C

10.4 C

10.2 C

10.4 C

313 W/m

0.00 mm

08:40

10.4 C

1015.3 hpa

93 %

1.6 km/h aus 115

6.4 km/h aus ESE

9.3 C

10.6 C

10.4 C

10.6 C

263 W/m

0.00 mm

08:45

10.4 C

1015.2 hpa

93 %

1.6 km/h aus 116

4.8 km/h aus NW

9.4 C

10.6 C

10.4 C

10.6 C

179 W/m

0.00 mm

08:50

10.6 C

1015.2 hpa

93 %

1.6 km/h aus 117

4.8 km/h aus WNW

9.5 C

10.7 C

10.6 C

10.7 C

181 W/m

0.00 mm

08:55

10.7 C

1015.2 hpa

93 %

0.0 km/h aus 116

3.2 km/h aus W

9.6 C

10.8 C

10.7 C

10.8 C

218 W/m

0.00 mm

09:00

10.8 C

1015.3 hpa

93 %

0.0 km/h aus 115

3.2 km/h aus W

9.7 C

10.9 C

10.8 C

10.9 C

243 W/m

0.00 mm

09:05

10.9 C

1015.3 hpa

93 %

0.0 km/h aus 115

3.2 km/h aus W

9.8 C

11.1 C

10.9 C

11.1 C

258 W/m

0.00 mm

09:10

11.4 C

1015.3 hpa

91 %

1.6 km/h aus 116

4.8 km/h aus W

10.0 C

11.6 C

11.4 C

11.6 C

226 W/m

0.00 mm

09:15

11.6 C

1015.4 hpa

88 %

0.0 km/h aus 116

3.2 km/h aus W

9.7 C

11.6 C

11.6 C

11.6 C

211 W/m

0.00 mm

09:20

11.7 C

1015.4 hpa

87 %

0.0 km/h aus 118

3.2 km/h aus WSW

9.6 C

11.7 C

11.7 C

11.7 C

196 W/m

0.00 mm

09:25

12.1 C

1015.4 hpa

86 %

1.6 km/h aus 115

4.8 km/h aus WSW

9.8 C

12.0 C

12.1 C

12.0 C

239 W/m

0.00 mm

09:30

12.3 C

1015.4 hpa

85 %

1.6 km/h aus 115

3.2 km/h aus WSW

9.8 C

12.2 C

12.3 C

12.2 C

273 W/m

0.00 mm

09:35

12.6 C

1015.4 hpa

84 %

1.6 km/h aus 117

6.4 km/h aus W

9.9 C

12.5 C

12.6 C

12.5 C

378 W/m

0.00 mm

09:40

12.7 C

1015.4 hpa

83 %

1.6 km/h aus 117

4.8 km/h aus W

9.9 C

12.6 C

12.7 C

12.6 C

338 W/m

0.00 mm

09:45

12.9 C

1015.4 hpa

83 %

3.2 km/h aus 116

6.4 km/h aus W

10.1 C

12.8 C

12.9 C

12.8 C

358 W/m

0.00 mm

09:50

13.3 C

1015.4 hpa

81 %

3.2 km/h aus 115

6.4 km/h aus NW

10.1 C

13.1 C

13.3 C

13.1 C

430 W/m

0.00 mm

09:55

13.5 C

1015.4 hpa

80 %

1.6 km/h aus 115

4.8 km/h aus NW

10.1 C

13.3 C

13.5 C

13.3 C

411 W/m

0.00 mm

10:00

13.6 C

1015.4 hpa

80 %

3.2 km/h aus 116

6.4 km/h aus WNW

10.2 C

13.4 C

13.6 C

13.4 C

370 W/m

0.00 mm

10:05

13.4 C

1015.4 hpa

79 %

0.0 km/h aus 117

3.2 km/h aus WNW

9.9 C

13.2 C

13.4 C

13.2 C

287 W/m

0.00 mm

10:10

13.5 C

1015.4 hpa

79 %

1.6 km/h aus 116

4.8 km/h aus WNW

9.9 C

13.3 C

13.5 C

13.3 C

295 W/m

0.00 mm

10:15

13.6 C

1015.5 hpa

78 %

3.2 km/h aus 113

6.4 km/h aus WNW

9.8 C

13.4 C

13.6 C

13.4 C

302 W/m

0.00 mm

10:20

13.8 C

1015.5 hpa

78 %

4.8 km/h aus 117

8.0 km/h aus W

10.1 C

13.6 C

13.8 C

13.6 C

306 W/m

0.00 mm

10:25

13.9 C

1015.5 hpa

77 %

4.8 km/h aus 116

6.4 km/h aus W

10.0 C

13.7 C

13.9 C

13.7 C

417 W/m

0.00 mm

10:30

14.5 C

1015.6 hpa

76 %

3.2 km/h aus 117

8.0 km/h aus W

10.3 C

14.3 C

14.5 C

14.3 C

494 W/m

0.00 mm

10:35

14.4 C

1015.6 hpa

75 %

3.2 km/h aus 117

8.0 km/h aus WNW

10.1 C

14.2 C

14.4 C

14.2 C

434 W/m

0.00 mm

10:40

14.8 C

1015.6 hpa

75 %

1.6 km/h aus 113

6.4 km/h aus NW

10.4 C

14.5 C

14.8 C

14.5 C

503 W/m

0.00 mm

10:45

15.3 C

1015.5 hpa

73 %

1.6 km/h aus 115

4.8 km/h aus NNW

10.5 C

15.1 C

15.3 C

15.1 C

554 W/m

0.00 mm

10:50

15.1 C

1015.5 hpa

74 %

1.6 km/h aus 117

6.4 km/h aus NNW

10.5 C

14.8 C

15.1 C

14.8 C

521 W/m

0.00 mm

10:55

15.4 C

1015.5 hpa

72 %

1.6 km/h aus 116

4.8 km/h aus NNW

10.4 C

15.1 C

15.4 C

15.1 C

512 W/m

0.00 mm

11:00

15.6 C

1015.5 hpa

73 %

4.8 km/h aus 116

8.0 km/h aus W

10.7 C

15.3 C

15.6 C

15.3 C

505 W/m

0.00 mm

11:05

15.7 C

1015.5 hpa

72 %

3.2 km/h aus 115

6.4 km/h aus NNW

10.6 C

15.4 C

15.7 C

15.4 C

486 W/m

0.00 mm

11:10

16.2 C

1015.5 hpa

71 %

4.8 km/h aus 117

9.7 km/h aus N

10.9 C

15.9 C

16.2 C

15.9 C

541 W/m

0.00 mm

11:15

16.3 C

1015.4 hpa

71 %

4.8 km/h aus 117

9.7 km/h aus NNW

11.0 C

16.0 C

16.3 C

16.0 C

496 W/m

0.00 mm

11:20

16.1 C

1015.4 hpa

71 %

1.6 km/h aus 117

4.8 km/h aus N

10.8 C

15.8 C

16.1 C

15.8 C

348 W/m

0.00 mm

11:25

16.1 C

1015.4 hpa

71 %

3.2 km/h aus 115

8.0 km/h aus N

10.8 C

15.8 C

16.1 C

15.8 C

358 W/m

0.00 mm

11:30

16.3 C

1015.4 hpa

71 %

3.2 km/h aus 115

6.4 km/h aus N

11.1 C

16.1 C

16.3 C

16.1 C

488 W/m

0.00 mm

11:35

16.2 C

1015.4 hpa

71 %

1.6 km/h aus 117

4.8 km/h aus NNE

11.0 C

15.9 C

16.2 C

15.9 C

525 W/m

0.00 mm

11:40

16.6 C

1015.4 hpa

68 %

4.8 km/h aus 117

6.4 km/h aus N

10.6 C

16.2 C

16.6 C

16.2 C

528 W/m

0.00 mm

11:45

16.4 C

1015.4 hpa

69 %

0.0 km/h aus 115

4.8 km/h aus WNW

10.7 C

16.1 C

16.4 C

16.1 C

507 W/m

0.00 mm

11:50

16.6 C

1015.4 hpa

69 %

1.6 km/h aus 114

6.4 km/h aus WNW

10.8 C

16.2 C

16.6 C

16.2 C

548 W/m

0.00 mm

11:55

16.8 C

1015.4 hpa

68 %

0.0 km/h aus 117

4.8 km/h aus WNW

10.8 C

16.5 C

16.8 C

16.5 C

549 W/m

0.00 mm

12:00

16.8 C

1015.4 hpa

69 %

1.6 km/h aus 117

6.4 km/h aus W

11.1 C

16.5 C

16.8 C

16.5 C

514 W/m

0.00 mm

12:05

16.7 C

1015.4 hpa

68 %

3.2 km/h aus 116

6.4 km/h aus WSW

10.8 C

16.4 C

16.7 C

16.4 C

489 W/m

0.00 mm

12:10

17.1 C

1015.4 hpa

69 %

3.2 km/h aus 115

8.0 km/h aus NNW

11.3 C

16.8 C

17.1 C

16.8 C

454 W/m

0.00 mm

12:15

17.3 C

1015.4 hpa

67 %

1.6 km/h aus 116

4.8 km/h aus NNW

11.1 C

17.1 C

17.3 C

17.1 C

479 W/m

0.00 mm

12:20

17.0 C

1015.4 hpa

67 %

1.6 km/h aus 117

6.4 km/h aus WNW

10.8 C

16.7 C

17.0 C

16.7 C

457 W/m

0.00 mm

12:25

17.1 C

1015.4 hpa

67 %

1.6 km/h aus 117

6.4 km/h aus WSW

10.9 C

16.8 C

17.1 C

16.8 C

490 W/m

0.00 mm

12:30

17.8 C

1015.3 hpa

66 %

3.2 km/h aus 115

8.0 km/h aus W

11.3 C

17.6 C

17.8 C

17.6 C

555 W/m

0.00 mm

12:35

17.5 C

1015.3 hpa

64 %

3.2 km/h aus 116

8.0 km/h aus WSW

10.6 C

17.2 C

17.5 C

17.2 C

577 W/m

0.00 mm

12:40

17.7 C

1015.3 hpa

64 %

4.8 km/h aus 116

11.3 km/h aus W

10.8 C

17.4 C

17.7 C

17.4 C

580 W/m

0.00 mm

12:45

18.1 C

1015.4 hpa

64 %

1.6 km/h aus 117

6.4 km/h aus NNW

11.1 C

17.8 C

18.1 C

17.8 C

559 W/m

0.00 mm

12:50

18.2 C

1015.4 hpa

62 %

1.6 km/h aus 116

6.4 km/h aus NNW

10.8 C

17.9 C

18.2 C

17.9 C

584 W/m

0.00 mm

12:55

18.5 C

1015.4 hpa

64 %

1.6 km/h aus 114

4.8 km/h aus NNW

11.6 C

18.3 C

18.5 C

18.3 C

585 W/m

0.00 mm

13:00

18.6 C

1015.2 hpa

61 %

1.6 km/h aus 117

8.0 km/h aus SSW

10.9 C

18.2 C

18.6 C

18.2 C

580 W/m

0.00 mm

13:05

19.0 C

1015.2 hpa

59 %

4.8 km/h aus 115

11.3 km/h aus WNW

10.8 C

18.6 C

19.0 C

18.6 C

580 W/m

0.00 mm

13:10

18.7 C

1015.2 hpa

62 %

3.2 km/h aus 117

11.3 km/h aus W

11.3 C

18.4 C

18.7 C

18.4 C

587 W/m

0.00 mm

13:15

19.6 C

1015.3 hpa

59 %

3.2 km/h aus 114

8.0 km/h aus N

11.3 C

19.3 C

19.6 C

19.3 C

592 W/m

0.00 mm

13:20

19.3 C

1015.3 hpa

54 %

1.6 km/h aus 116

6.4 km/h aus WNW

9.8 C

18.8 C

19.3 C

18.8 C

596 W/m

0.00 mm

13:25

19.2 C

1015.3 hpa

54 %

4.8 km/h aus 116

8.0 km/h aus WNW

9.6 C

18.6 C

19.2 C

18.6 C

597 W/m

0.00 mm

13:30

19.6 C

1015.0 hpa

54 %

4.8 km/h aus 117

11.3 km/h aus ENE

10.0 C

19.0 C

19.6 C

19.0 C

594 W/m

0.00 mm

13:35

19.5 C

1015.0 hpa

54 %

4.8 km/h aus 115

9.7 km/h aus N

9.9 C

18.9 C

19.5 C

18.9 C

535 W/m

0.00 mm

13:40

18.9 C

1015.0 hpa

53 %

4.8 km/h aus 115

11.3 km/h aus NW

9.1 C

18.2 C

18.9 C

18.2 C

572 W/m

0.00 mm

13:45

18.8 C

1014.9 hpa

54 %

1.6 km/h aus 117

11.3 km/h aus WNW

9.3 C

18.2 C

18.8 C

18.2 C

585 W/m

0.00 mm

13:50

19.0 C

1014.9 hpa

52 %

4.8 km/h aus 117

11.3 km/h aus N

8.9 C

18.2 C

19.0 C

18.2 C

328 W/m

0.00 mm

13:55

18.5 C

1014.9 hpa

55 %

3.2 km/h aus 116

9.7 km/h aus WNW

9.3 C

17.8 C

18.5 C

17.8 C

359 W/m

0.00 mm

14:00

19.6 C

1014.9 hpa

52 %

3.2 km/h aus 114

8.0 km/h aus WNW

9.5 C

18.9 C

19.6 C

18.9 C

597 W/m

0.00 mm

14:05

19.7 C

1014.9 hpa

49 %

3.2 km/h aus 116

6.4 km/h aus WNW

8.6 C

18.8 C

19.7 C

18.8 C

590 W/m

0.00 mm

14:10

19.3 C

1014.9 hpa

51 %

4.8 km/h aus 117

8.0 km/h aus S

8.9 C

18.6 C

19.3 C

18.6 C

581 W/m

0.00 mm

14:15

19.5 C

1014.7 hpa

50 %

3.2 km/h aus 117

8.0 km/h aus WNW

8.8 C

18.7 C

19.5 C

18.7 C

574 W/m

0.00 mm

14:20

19.9 C

1014.7 hpa

51 %

3.2 km/h aus 114

8.0 km/h aus W

9.5 C

19.3 C

19.9 C

19.3 C

573 W/m

0.00 mm

14:25

20.2 C

1014.7 hpa

52 %

1.6 km/h aus 116

6.4 km/h aus NNE

10.0 C

19.6 C

20.2 C

19.6 C

573 W/m

0.00 mm

14:30

20.5 C

1014.5 hpa

47 %

3.2 km/h aus 117

8.0 km/h aus NW

8.8 C

19.6 C

20.5 C

19.6 C

574 W/m

0.00 mm

14:35

20.6 C

1014.5 hpa

45 %

4.8 km/h aus 118

9.7 km/h aus WNW

8.3 C

19.6 C

20.6 C

19.6 C

576 W/m

0.00 mm

14:40

20.7 C

1014.5 hpa

47 %

6.4 km/h aus 114

9.7 km/h aus NW

8.9 C

19.7 C

20.7 C

19.7 C

565 W/m

0.00 mm

14:45

20.7 C

1014.4 hpa

45 %

6.4 km/h aus 117

16.1 km/h aus N

8.3 C

19.6 C

20.7 C

19.6 C

569 W/m

0.00 mm

14:50

20.1 C

1014.4 hpa

46 %

1.6 km/h aus 117

6.4 km/h aus N

8.1 C

19.1 C

20.1 C

19.1 C

391 W/m

0.00 mm

14:55

19.3 C

1014.4 hpa

49 %

3.2 km/h aus 115

8.0 km/h aus WNW

8.3 C

18.5 C

19.3 C

18.5 C

206 W/m

0.00 mm

15:00

19.6 C

1014.4 hpa

52 %

4.8 km/h aus 115

9.7 km/h aus W

9.4 C

18.9 C

19.6 C

18.9 C

383 W/m

0.00 mm

15:05

20.3 C

1014.4 hpa

49 %

4.8 km/h aus 116

11.3 km/h aus N

9.2 C

19.4 C

20.3 C

19.4 C

565 W/m

0.00 mm

15:10

20.3 C

1014.4 hpa

49 %

4.8 km/h aus 117

9.7 km/h aus NW

9.3 C

19.5 C

20.3 C

19.5 C

561 W/m

0.00 mm

15:15

20.3 C

1014.3 hpa

49 %

4.8 km/h aus 116

14.5 km/h aus W

9.3 C

19.5 C

20.3 C

19.5 C

555 W/m

0.00 mm

15:20

20.2 C

1014.3 hpa

48 %

6.4 km/h aus 114

14.5 km/h aus W

8.8 C

19.3 C

20.2 C

19.3 C

531 W/m

0.00 mm

15:25

20.6 C

1014.3 hpa

49 %

4.8 km/h aus 117

9.7 km/h aus NW

9.5 C

19.8 C

20.6 C

19.8 C

529 W/m

0.00 mm

15:30

20.4 C

1014.1 hpa

48 %

1.6 km/h aus 117

4.8 km/h aus NNW

9.0 C

19.5 C

20.4 C

19.5 C

540 W/m

0.00 mm

15:35

20.8 C

1014.1 hpa

47 %

3.2 km/h aus 116

6.4 km/h aus WNW

9.0 C

19.8 C

20.8 C

19.8 C

534 W/m

0.00 mm

15:40

20.8 C

1014.1 hpa

47 %

4.8 km/h aus 114

11.3 km/h aus WNW

9.0 C

19.8 C

20.8 C

19.8 C

532 W/m

0.00 mm

15:45

21.1 C

1014.1 hpa

46 %

4.8 km/h aus 117

9.7 km/h aus NW

9.0 C

19.9 C

21.1 C

19.9 C

525 W/m

0.00 mm

15:50

20.6 C

1014.1 hpa

46 %

1.6 km/h aus 117

6.4 km/h aus NW

8.5 C

19.6 C

20.6 C

19.6 C

523 W/m

0.00 mm

15:55

20.5 C

1014.1 hpa

45 %

3.2 km/h aus 116

8.0 km/h aus NNW

8.2 C

19.4 C

20.5 C

19.4 C

518 W/m

0.00 mm

16:00

20.3 C

1013.9 hpa

46 %

1.6 km/h aus 113

4.8 km/h aus W

8.3 C

19.3 C

20.3 C

19.3 C

511 W/m

0.00 mm

16:05

20.8 C

1013.9 hpa

49 %

3.2 km/h aus 117

9.7 km/h aus WSW

9.7 C

19.9 C

20.8 C

19.9 C

511 W/m

0.00 mm

16:10

21.1 C

1013.9 hpa

46 %

6.4 km/h aus 116

12.9 km/h aus NW

9.0 C

19.9 C

21.1 C

19.9 C

526 W/m

0.00 mm

16:15

21.2 C

1013.9 hpa

47 %

4.8 km/h aus 115

11.3 km/h aus N

9.4 C

20.1 C

21.2 C

20.1 C

531 W/m

0.00 mm

16:20

20.9 C

1013.9 hpa

47 %

4.8 km/h aus 115

9.7 km/h aus NW

9.2 C

19.9 C

20.9 C

19.9 C

522 W/m

0.00 mm

16:25

21.4 C

1013.9 hpa

47 %

6.4 km/h aus 117

14.5 km/h aus N

9.7 C

20.4 C

21.4 C

20.4 C

525 W/m

0.00 mm

16:30

20.7 C

1013.9 hpa

48 %

4.8 km/h aus 117

11.3 km/h aus NW

9.3 C

19.7 C

20.7 C

19.7 C

107 W/m

0.00 mm

16:35

20.0 C

1013.9 hpa

48 %

3.2 km/h aus 115

6.4 km/h aus NW

8.7 C

19.2 C

20.0 C

19.2 C

90 W/m

0.00 mm

16:40

20.1 C

1013.9 hpa

50 %

6.4 km/h aus 116

14.5 km/h aus NW

9.3 C

19.3 C

20.1 C

19.3 C

275 W/m

0.00 mm

16:45

20.7 C

1014.0 hpa

48 %

8.0 km/h aus 117

12.9 km/h aus W

9.3 C

19.8 C

20.7 C

19.8 C

379 W/m

0.00 mm

16:50

20.1 C

1014.0 hpa

50 %

4.8 km/h aus 117

9.7 km/h aus WNW

9.4 C

19.4 C

20.1 C

19.4 C

114 W/m

0.00 mm

16:55

20.2 C

1014.0 hpa

50 %

4.8 km/h aus 115

6.4 km/h aus W

9.5 C

19.5 C

20.2 C

19.5 C

359 W/m

0.00 mm

17:00

20.3 C

1014.0 hpa

49 %

4.8 km/h aus 115

11.3 km/h aus NW

9.2 C

19.4 C

20.3 C

19.4 C

203 W/m

0.00 mm

17:05

20.5 C

1014.0 hpa

49 %

6.4 km/h aus 116

11.3 km/h aus NNW

9.4 C

19.7 C

20.5 C

19.7 C

393 W/m

0.00 mm

17:10

20.6 C

1014.0 hpa

48 %

6.4 km/h aus 117

11.3 km/h aus WSW

9.2 C

19.7 C

20.6 C

19.7 C

419 W/m

0.00 mm

17:15

20.6 C

1013.9 hpa

48 %

8.0 km/h aus 115

12.9 km/h aus W

9.2 C

19.7 C

20.6 C

19.7 C

249 W/m

0.00 mm

17:20

20.7 C

1013.9 hpa

49 %

6.4 km/h aus 114

16.1 km/h aus WNW

9.6 C

19.8 C

20.7 C

19.8 C

334 W/m

0.00 mm

17:25

20.7 C

1013.9 hpa

49 %

9.7 km/h aus 116

19.3 km/h aus W

9.6 C

19.8 C

20.7 C

19.8 C

370 W/m

0.00 mm

17:30

20.6 C

1014.0 hpa

49 %

8.0 km/h aus 116

17.7 km/h aus W

9.5 C

19.8 C

20.6 C

19.8 C

357 W/m

0.00 mm

17:35

20.4 C

1014.0 hpa

48 %

9.7 km/h aus 117

16.1 km/h aus W

9.0 C

19.5 C

20.4 C

19.5 C

329 W/m

0.00 mm

17:40

20.2 C

1014.0 hpa

49 %

8.0 km/h aus 114

19.3 km/h aus NW

9.1 C

19.4 C

20.2 C

19.4 C

234 W/m

0.00 mm

17:45

20.1 C

1014.0 hpa

49 %

8.0 km/h aus 116

11.3 km/h aus NW

9.0 C

19.3 C

20.1 C

19.3 C

240 W/m

0.00 mm

17:50

20.2 C

1014.0 hpa

49 %

6.4 km/h aus 117

11.3 km/h aus W

9.2 C

19.4 C

20.2 C

19.4 C

234 W/m

0.00 mm

17:55

20.1 C

1014.0 hpa

49 %

6.4 km/h aus 117

14.5 km/h aus W

9.1 C

19.3 C

20.1 C

19.3 C

234 W/m

0.00 mm

18:00

20.1 C

1014.0 hpa

49 %

8.0 km/h aus 115

14.5 km/h aus WSW

9.0 C

19.3 C

20.1 C

19.3 C

231 W/m

0.00 mm

18:05

20.2 C

1014.0 hpa

50 %

6.4 km/h aus 115

11.3 km/h aus W

9.5 C

19.5 C

20.2 C

19.5 C

253 W/m

0.00 mm

18:10

20.2 C

1014.0 hpa

49 %

8.0 km/h aus 116

11.3 km/h aus WSW

9.2 C

19.4 C

20.2 C

19.4 C

237 W/m

0.00 mm

18:15

20.1 C

1014.2 hpa

49 %

8.0 km/h aus 116

16.1 km/h aus WNW

9.1 C

19.3 C

20.1 C

19.3 C

220 W/m

0.00 mm

18:20

20.0 C

1014.2 hpa

51 %

6.4 km/h aus 117

11.3 km/h aus WNW

9.6 C

19.3 C

20.0 C

19.3 C

205 W/m

0.00 mm

18:25

19.9 C

1014.2 hpa

51 %

8.0 km/h aus 113

14.5 km/h aus W

9.5 C

19.3 C

19.9 C

19.3 C

186 W/m

0.00 mm

18:30

20.0 C

1014.4 hpa

51 %

8.0 km/h aus 115

14.5 km/h aus W

9.6 C

19.3 C

20.0 C

19.3 C

169 W/m

0.00 mm

18:35

19.8 C

1014.4 hpa

51 %

6.4 km/h aus 117

11.3 km/h aus W

9.4 C

19.2 C

19.8 C

19.2 C

143 W/m

0.00 mm

18:40

19.8 C

1014.4 hpa

52 %

6.4 km/h aus 117

9.7 km/h aus W

9.6 C

19.2 C

19.8 C

19.2 C

123 W/m

0.00 mm

18:45

19.6 C

1014.4 hpa

52 %

6.4 km/h aus 113

11.3 km/h aus NW

9.5 C

18.9 C

19.6 C

18.9 C

115 W/m

0.00 mm

18:50

19.7 C

1014.4 hpa

53 %

6.4 km/h aus 117

12.9 km/h aus W

9.8 C

19.1 C

19.7 C

19.1 C

59 W/m

0.00 mm

18:55

19.6 C

1014.4 hpa

53 %

4.8 km/h aus 117

11.3 km/h aus WSW

9.8 C

19.0 C

19.6 C

19.0 C

41 W/m

0.00 mm

19:00

19.6 C

1014.4 hpa

53 %

6.4 km/h aus 117

11.3 km/h aus W

9.8 C

19.0 C

19.6 C

19.0 C

32 W/m

0.00 mm

19:05

19.6 C

1014.4 hpa

53 %

6.4 km/h aus 115

11.3 km/h aus WSW

9.7 C

18.9 C

19.6 C

18.9 C

30 W/m

0.00 mm

19:10

19.5 C

1014.4 hpa

53 %

4.8 km/h aus 114

9.7 km/h aus W

9.7 C

18.9 C

19.5 C

18.9 C

28 W/m

0.00 mm

19:15

19.4 C

1014.4 hpa

54 %

4.8 km/h aus 117

11.3 km/h aus W

9.8 C

18.8 C

19.4 C

18.8 C

26 W/m

0.00 mm

19:20

19.3 C

1014.4 hpa

54 %

6.4 km/h aus 117

11.3 km/h aus WNW

9.8 C

18.8 C

19.3 C

18.8 C

25 W/m

0.00 mm

19:25

19.2 C

1014.4 hpa

54 %

6.4 km/h aus 117

11.3 km/h aus W

9.7 C

18.6 C

19.2 C

18.6 C

24 W/m

0.00 mm

19:30

19.2 C

1014.4 hpa

55 %

6.4 km/h aus 115

11.3 km/h aus W

9.9 C

18.6 C

19.2 C

18.6 C

21 W/m

0.00 mm

19:35

19.1 C

1014.4 hpa

55 %

4.8 km/h aus 116

9.7 km/h aus W

9.8 C

18.5 C

19.1 C

18.5 C

19 W/m

0.00 mm

19:40

18.9 C

1014.4 hpa

55 %

3.2 km/h aus 117

6.4 km/h aus W

9.7 C

18.3 C

18.9 C

18.3 C

18 W/m

0.00 mm

19:45

18.8 C

1014.6 hpa

56 %

4.8 km/h aus 116

6.4 km/h aus W

9.9 C

18.3 C

18.8 C

18.3 C

16 W/m

0.00 mm

19:50

18.7 C

1014.6 hpa

56 %

4.8 km/h aus 116

8.0 km/h aus W

9.7 C

18.1 C

18.7 C

18.1 C

13 W/m

0.00 mm

19:55

18.5 C

1014.6 hpa

56 %

3.2 km/h aus 115

6.4 km/h aus W

9.6 C

17.9 C

18.5 C

17.9 C

11 W/m

0.00 mm

20:00

18.3 C

1014.8 hpa

57 %

0.0 km/h aus 116

3.2 km/h aus W

9.7 C

17.8 C

18.3 C

17.8 C

8 W/m

0.00 mm

20:05

18.2 C

1014.8 hpa

57 %

0.0 km/h aus 116

3.2 km/h aus W

9.5 C

17.6 C

18.2 C

17.6 C

6 W/m

0.00 mm

20:10

17.9 C

1014.8 hpa

58 %

0.0 km/h aus 117

3.2 km/h aus W

9.6 C

17.4 C

17.9 C

17.4 C

1 W/m

0.00 mm

20:15

17.7 C

1014.9 hpa

58 %

0.0 km/h aus 115

0.0 km/h aus ---

9.3 C

17.1 C

17.7 C

17.1 C

0 W/m

0.00 mm

20:20

17.6 C

1014.9 hpa

59 %

0.0 km/h aus 114

0.0 km/h aus ---

9.4 C

16.9 C

17.6 C

16.9 C

0 W/m

0.00 mm

20:25

17.3 C

1014.9 hpa

59 %

0.0 km/h aus 116

0.0 km/h aus ---

9.2 C

16.7 C

17.3 C

16.7 C

0 W/m

0.00 mm

20:30

17.1 C

1014.9 hpa

60 %

0.0 km/h aus 117

0.0 km/h aus ---

9.2 C

16.4 C

17.1 C

16.4 C

0 W/m

0.00 mm

20:35

16.7 C

1014.9 hpa

62 %

0.0 km/h aus 117

0.0 km/h aus ---

9.4 C

16.2 C

16.7 C

16.2 C

0 W/m

0.00 mm

20:40

16.4 C

1014.9 hpa

62 %

1.6 km/h aus 115

4.8 km/h aus SW

9.1 C

15.9 C

16.4 C

15.9 C

0 W/m

0.00 mm

20:45

16.2 C

1015.2 hpa

63 %

1.6 km/h aus 115

4.8 km/h aus SE

9.2 C

15.7 C

16.2 C

15.7 C

0 W/m

0.00 mm

20:50

16.0 C

1015.2 hpa

64 %

0.0 km/h aus 116

1.6 km/h aus SE

9.2 C

15.5 C

16.0 C

15.5 C

0 W/m

0.00 mm

20:55

15.8 C

1015.2 hpa

65 %

0.0 km/h aus 118

0.0 km/h aus ---

9.2 C

15.3 C

15.8 C

15.3 C

0 W/m

0.00 mm

21:00

15.6 C

1015.3 hpa

65 %

0.0 km/h aus 117

0.0 km/h aus ---

9.0 C

15.1 C

15.6 C

15.1 C

0 W/m

0.00 mm

21:05

15.3 C

1015.3 hpa

66 %

0.0 km/h aus 114

0.0 km/h aus ---

9.0 C

14.8 C

15.3 C

14.8 C

0 W/m

0.00 mm

21:10

15.1 C

1015.3 hpa

67 %

0.0 km/h aus 116

0.0 km/h aus ---

9.0 C

14.6 C

15.1 C

14.6 C

0 W/m

0.00 mm

21:15

14.9 C

1015.4 hpa

68 %

0.0 km/h aus 117

0.0 km/h aus ---

9.1 C

14.5 C

14.9 C

14.5 C

0 W/m

0.00 mm

21:20

14.7 C

1015.4 hpa

69 %

0.0 km/h aus 115

0.0 km/h aus ---

9.1 C

14.3 C

14.7 C

14.3 C

0 W/m

0.00 mm

21:25

14.6 C

1015.4 hpa

69 %

0.0 km/h aus 117

0.0 km/h aus ---

9.0 C

14.2 C

14.6 C

14.2 C

0 W/m

0.00 mm

21:30

14.4 C

1015.4 hpa

69 %

0.0 km/h aus 114

0.0 km/h aus ---

8.8 C

14.0 C

14.4 C

14.0 C

0 W/m

0.00 mm

21:35

14.3 C

1015.4 hpa

70 %

0.0 km/h aus 114

0.0 km/h aus ---

8.9 C

13.8 C

14.3 C

13.8 C

0 W/m

0.00 mm

21:40

14.2 C

1015.4 hpa

70 %

0.0 km/h aus 117

0.0 km/h aus ---

8.8 C

13.7 C

14.2 C

13.7 C

0 W/m

0.00 mm

21:45

13.9 C

1015.5 hpa

71 %

0.0 km/h aus 117

0.0 km/h aus ---

8.8 C

13.6 C

13.9 C

13.6 C

0 W/m

0.00 mm

21:50

13.8 C

1015.5 hpa

71 %

0.0 km/h aus 117

0.0 km/h aus ---

8.7 C

13.4 C

13.8 C

13.4 C

0 W/m

0.00 mm

21:55

13.7 C

1015.5 hpa

72 %

0.0 km/h aus 115

0.0 km/h aus ---

8.7 C

13.3 C

13.7 C

13.3 C

0 W/m

0.00 mm

22:00

13.6 C

1015.5 hpa

72 %

0.0 km/h aus 116

0.0 km/h aus ---

8.6 C

13.2 C

13.6 C

13.2 C

0 W/m

0.00 mm

22:05

13.4 C

1015.5 hpa

73 %

0.0 km/h aus 117

0.0 km/h aus ---

8.6 C

13.0 C

13.4 C

13.0 C

0 W/m

0.00 mm

22:10

13.3 C

1015.5 hpa

73 %

0.0 km/h aus 116

0.0 km/h aus ---

8.5 C

12.9 C

13.3 C

12.9 C

0 W/m

0.00 mm

22:15

13.2 C

1015.5 hpa

74 %

0.0 km/h aus 117

0.0 km/h aus ---

8.6 C

12.8 C

13.2 C

12.8 C

0 W/m

0.00 mm

22:20

13.1 C

1015.5 hpa

74 %

1.6 km/h aus 115

6.4 km/h aus NE

8.6 C

12.8 C

13.1 C

12.8 C

0 W/m

0.00 mm

22:25

13.0 C

1015.5 hpa

75 %

0.0 km/h aus 114

0.0 km/h aus ---

8.7 C

12.7 C

13.0 C

12.7 C

0 W/m

0.00 mm

22:30

12.9 C

1015.5 hpa

75 %

0.0 km/h aus 117

0.0 km/h aus ---

8.6 C

12.6 C

12.9 C

12.6 C

0 W/m

0.00 mm

22:35

12.8 C

1015.5 hpa

75 %

0.0 km/h aus 117

0.0 km/h aus ---

8.5 C

12.6 C

12.8 C

12.6 C

0 W/m

0.00 mm

22:40

12.7 C

1015.5 hpa

75 %

0.0 km/h aus 117

0.0 km/h aus ---

8.4 C

12.4 C

12.7 C

12.4 C

0 W/m

0.00 mm

22:45

12.7 C

1015.4 hpa

77 %

0.0 km/h aus 116

0.0 km/h aus ---

8.7 C

12.4 C

12.7 C

12.4 C

0 W/m

0.00 mm

22:50

12.7 C

1015.4 hpa

78 %

0.0 km/h aus 114

0.0 km/h aus ---

8.9 C

12.4 C

12.7 C

12.4 C

0 W/m

0.00 mm

22:55

12.5 C

1015.4 hpa

78 %

0.0 km/h aus 116

0.0 km/h aus ---

8.8 C

12.3 C

12.5 C

12.3 C

0 W/m

0.00 mm

23:00

12.3 C

1015.4 hpa

78 %

0.0 km/h aus 117

0.0 km/h aus ---

8.6 C

12.1 C

12.3 C

12.1 C

0 W/m

0.00 mm

23:05

12.2 C

1015.4 hpa

78 %

0.0 km/h aus 118

0.0 km/h aus ---

8.5 C

12.0 C

12.2 C

12.0 C

0 W/m

0.00 mm

23:10

12.1 C

1015.4 hpa

77 %

0.0 km/h aus 116

0.0 km/h aus ---

8.2 C

11.9 C

12.1 C

11.9 C

0 W/m

0.00 mm

23:15

12.0 C

1015.4 hpa

78 %

0.0 km/h aus 114

1.6 km/h aus NE

8.3 C

11.8 C

12.0 C

11.8 C

0 W/m

0.00 mm

23:20

11.9 C

1015.4 hpa

78 %

0.0 km/h aus 116

1.6 km/h aus NE

8.2 C

11.7 C

11.9 C

11.7 C

0 W/m

0.00 mm

23:25

11.8 C

1015.4 hpa

78 %

0.0 km/h aus 117

0.0 km/h aus ---

8.1 C

11.6 C

11.8 C

11.6 C

0 W/m

0.00 mm

23:30

11.7 C

1015.4 hpa

78 %

0.0 km/h aus 117

0.0 km/h aus ---

8.0 C

11.4 C

11.7 C

11.4 C

0 W/m

0.00 mm

23:35

11.6 C

1015.4 hpa

78 %

0.0 km/h aus 116

1.6 km/h aus NE

7.8 C

11.3 C

11.6 C

11.3 C

0 W/m

0.00 mm

23:40

11.4 C

1015.4 hpa

78 %

0.0 km/h aus 115

0.0 km/h aus ---

7.7 C

11.3 C

11.4 C

11.3 C

0 W/m

0.00 mm

23:45

11.4 C

1015.4 hpa

78 %

0.0 km/h aus 113

0.0 km/h aus ---

7.7 C

11.2 C

11.4 C

11.2 C

0 W/m

0.00 mm

23:50

11.3 C

1015.4 hpa

79 %

0.0 km/h aus 117

0.0 km/h aus ---

7.8 C

11.1 C

11.3 C

11.1 C

0 W/m

0.00 mm

23:55

11.2 C

1015.4 hpa

79 %

0.0 km/h aus 116

0.0 km/h aus ---

7.7 C

11.1 C

11.2 C

11.1 C

0 W/m

0.00 mm